Location: York
(31.8935°S, 116.7682°E)
Time: 23:29:09
(UTC+08:00)

Envisat - Pass Details

Date: 24 May 2021
Orbit: 764 x 766 km, 98.1° (Epoch: 14 June)

Event Time Altitude Azimuth Distance (km) Brightness Sun altitude
Rises 05:49:48 0° 343° (NNW) 3,216 6.2 -14.8°
Reaches altitude 10° 05:52:30 10° 329° (NNW) 2,300 5.3 -14.3°
Maximum altitude 05:56:34 24° 276° (W) 1,551 4.1 -13.5°
Enters shadow 05:59:07 17° 236° (WSW) 1,890 4.4 -13.0°
